Time,TemperatureF,DewpointF,PressureIn,WindDirection,WindDirectionDegrees,WindSpeedMPH,WindSpeedGustMPH,Humidity,HourlyPrecipIn,Conditions,Clouds,dailyrainin,SoftwareType,DateUTC
2013-04-16 00:00:00,43.3,32.0,30.27,SE,135,0.0,0.0,64,0.00,,---,0.00,VWS V14.01,2013-04-16 04:00:00,
2013-04-16 00:05:00,43.1,31.8,30.27,SE,135,0.0,0.0,64,0.00,,---,0.00,VWS V14.01,2013-04-16 04:05:00,
2013-04-16 00:10:00,42.9,31.6,30.27,SE,135,0.0,0.0,64,0.00,,---,0.00,VWS V14.01,2013-04-16 04:10:00,
2013-04-16 00:15:00,42.9,32.0,30.26,SE,135,2.4,2.4,65,0.00,,---,0.00,VWS V14.01,2013-04-16 04:15:00,
2013-04-16 00:20:00,42.6,31.7,30.25,SE,135,0.0,0.0,65,0.00,,---,0.00,VWS V14.01,2013-04-16 04:20:00,
2013-04-16 00:25:00,42.8,32.2,30.25,SE,135,0.0,0.0,66,0.00,,---,0.00,VWS V14.01,2013-04-16 04:25:00,
2013-04-16 00:30:00,42.9,32.3,30.25,SE,135,0.0,0.0,66,0.00,,---,0.00,VWS V14.01,2013-04-16 04:30:00,
2013-04-16 00:35:00,42.9,32.3,30.25,SE,135,5.3,5.3,66,0.00,,---,0.00,VWS V14.01,2013-04-16 04:35:00,
2013-04-16 00:40:00,43.1,32.9,30.25,SSE,158,0.0,0.0,67,0.00,,---,0.00,VWS V14.01,2013-04-16 04:40:00,
2013-04-16 00:45:00,43.5,33.3,30.25,SSE,158,0.0,0.0,67,0.00,,---,0.00,VWS V14.01,2013-04-16 04:45:00,
2013-04-16 00:50:00,43.5,33.3,30.25,SSE,158,0.0,0.0,67,0.00,,---,0.00,VWS V14.01,2013-04-16 04:50:00,
2013-04-16 00:55:00,43.5,33.3,30.25,SSE,158,0.0,0.0,67,0.00,,---,0.00,VWS V14.01,2013-04-16 04:55:00,
2013-04-16 01:00:00,43.5,33.3,30.24,SSE,158,0.0,0.0,67,0.00,,---,0.00,VWS V14.01,2013-04-16 05:00:00,
2013-04-16 01:05:00,43.5,33.7,30.25,SE,135,3.8,3.8,68,0.00,,---,0.00,VWS V14.01,2013-04-16 05:05:00,
2013-04-16 01:10:00,43.8,33.9,30.25,SE,135,0.0,0.0,68,0.00,,---,0.00,VWS V14.01,2013-04-16 05:10:00,
2013-04-16 01:15:00,44.0,34.1,30.25,SE,135,0.0,0.0,68,0.00,,---,0.00,VWS V14.01,2013-04-16 05:15:00,
2013-04-16 01:20:00,44.4,34.9,30.25,SE,135,5.8,5.8,69,0.00,,---,0.00,VWS V14.01,2013-04-16 05:20:00,
2013-04-16 01:25:00,44.7,35.2,30.25,SE,135,0.0,0.0,69,0.00,,---,0.00,VWS V14.01,2013-04-16 05:25:00,
2013-04-16 01:30:00,45.1,35.5,30.24,SSE,158,0.0,0.0,69,0.00,,---,0.00,VWS V14.01,2013-04-16 05:30:00,
2013-04-16 01:35:00,45.3,35.7,30.24,SE,135,9.1,9.1,69,0.00,,---,0.00,VWS V14.01,2013-04-16 05:35:00,
2013-04-16 01:40:00,46.2,36.6,30.25,SSE,158,0.0,0.0,69,0.00,,---,0.00,VWS V14.01,2013-04-16 05:40:00,
2013-04-16 01:45:00,46.4,36.8,30.25,SE,135,0.0,0.0,69,0.00,,---,0.00,VWS V14.01,2013-04-16 05:45:00,
2013-04-16 01:50:00,46.9,36.9,30.25,South,180,0.0,0.0,68,0.00,,---,0.00,VWS V14.01,2013-04-16 05:50:00,
2013-04-16 01:55:00,46.9,36.9,30.25,West,270,0.0,0.0,68,0.00,,---,0.00,VWS V14.01,2013-04-16 05:55:00,
2013-04-16 02:00:00,47.1,37.1,30.25,SSE,158,0.0,0.0,68,0.00,,---,0.00,VWS V14.01,2013-04-16 06:00:00,
2013-04-16 02:05:00,47.1,37.1,30.25,SE,135,0.0,0.0,68,0.00,,---,0.00,VWS V14.01,2013-04-16 06:05:00,
2013-04-16 02:10:00,47.1,37.1,30.25,SSE,158,6.7,6.7,68,0.00,,---,0.00,VWS V14.01,2013-04-16 06:10:00,
2013-04-16 02:15:00,47.3,37.3,30.25,SE,135,0.0,0.0,68,0.00,,---,0.00,VWS V14.01,2013-04-16 06:15:00,
2013-04-16 02:20:00,47.4,37.4,30.25,SE,135,0.0,0.0,68,0.00,,---,0.00,VWS V14.01,2013-04-16 06:20:00,
2013-04-16 02:25:00,47.4,37.0,30.25,SSE,158,7.3,7.3,67,0.00,,---,0.00,VWS V14.01,2013-04-16 06:25:00,
2013-04-16 02:30:00,47.6,37.2,30.25,SE,135,3.5,3.5,67,0.00,,---,0.00,VWS V14.01,2013-04-16 06:30:00,
2013-04-16 02:35:00,47.8,37.4,30.25,SE,135,7.1,7.1,67,0.00,,---,0.00,VWS V14.01,2013-04-16 06:35:00,
2013-04-16 02:40:00,48.0,38.0,30.25,SSE,158,6.2,6.2,68,0.00,,---,0.00,VWS V14.01,2013-04-16 06:40:00,
2013-04-16 02:45:00,48.0,37.6,30.25,SE,135,15.2,15.2,67,0.00,,---,0.00,VWS V14.01,2013-04-16 06:45:00,
2013-04-16 02:50:00,48.2,37.8,30.24,SE,135,0.0,0.0,67,0.00,,---,0.00,VWS V14.01,2013-04-16 06:50:00,
2013-04-16 02:55:00,48.2,37.8,30.24,SE,135,0.4,0.4,67,0.00,,---,0.00,VWS V14.01,2013-04-16 06:55:00,
2013-04-16 03:00:00,48.0,37.6,30.24,SSE,158,6.9,6.9,67,0.00,,---,0.00,VWS V14.01,2013-04-16 07:00:00,
2013-04-16 03:05:00,48.2,37.8,30.24,SE,135,6.9,6.9,67,0.00,,---,0.00,VWS V14.01,2013-04-16 07:05:00,
2013-04-16 03:10:00,48.2,37.8,30.24,SE,135,6.7,6.7,67,0.00,,---,0.00,VWS V14.01,2013-04-16 07:10:00,
2013-04-16 03:15:00,48.2,37.8,30.23,SSE,158,5.1,5.1,67,0.00,,---,0.00,VWS V14.01,2013-04-16 07:15:00,
2013-04-16 03:20:00,48.2,37.8,30.24,SE,135,7.6,7.6,67,0.00,,---,0.00,VWS V14.01,2013-04-16 07:20:00,
2013-04-16 03:25:00,48.2,37.8,30.23,SE,135,4.2,4.2,67,0.00,,---,0.00,VWS V14.01,2013-04-16 07:25:00,
2013-04-16 03:30:00,48.2,37.8,30.23,SE,135,6.4,6.4,67,0.00,,---,0.00,VWS V14.01,2013-04-16 07:30:00,
2013-04-16 03:35:00,48.2,38.2,30.24,SE,135,4.2,4.2,68,0.00,,---,0.00,VWS V14.01,2013-04-16 07:35:00,
2013-04-16 03:40:00,48.3,38.2,30.23,SSE,158,0.0,0.0,68,0.00,,---,0.00,VWS V14.01,2013-04-16 07:40:00,
2013-04-16 03:45:00,48.3,38.2,30.23,SE,135,1.3,1.3,68,0.00,,---,0.00,VWS V14.01,2013-04-16 07:45:00,
2013-04-16 03:50:00,48.3,38.2,30.23,SE,135,0.0,0.0,68,0.00,,---,0.00,VWS V14.01,2013-04-16 07:50:00,
2013-04-16 03:55:00,48.3,38.2,30.23,SE,135,0.6,0.6,68,0.00,,---,0.00,VWS V14.01,2013-04-16 07:55:00,
2013-04-16 04:00:00,48.3,38.2,30.23,SE,135,0.0,0.0,68,0.00,,---,0.00,VWS V14.01,2013-04-16 08:00:00,
2013-04-16 04:05:00,48.3,38.6,30.23,SE,135,6.2,6.2,69,0.00,,---,0.00,VWS V14.01,2013-04-16 08:05:00,
2013-04-16 04:10:00,48.3,38.6,30.23,SE,135,0.8,0.8,69,0.00,,---,0.00,VWS V14.01,2013-04-16 08:10:00,
2013-04-16 04:15:00,48.7,39.0,30.23,SE,135,6.4,6.4,69,0.00,,---,0.00,VWS V14.01,2013-04-16 08:15:00,
2013-04-16 04:20:00,48.7,39.0,30.23,SE,135,4.9,4.9,69,0.00,,---,0.00,VWS V14.01,2013-04-16 08:20:00,
2013-04-16 04:25:00,48.7,39.4,30.23,South,180,0.0,0.0,70,0.00,,---,0.00,VWS V14.01,2013-04-16 08:25:00,
2013-04-16 04:30:00,48.7,39.4,30.22,North,0,0.0,0.0,70,0.00,,---,0.00,VWS V14.01,2013-04-16 08:30:00,
2013-04-16 04:35:00,48.9,39.6,30.22,SE,135,5.8,5.8,70,0.00,,---,0.00,VWS V14.01,2013-04-16 08:35:00,
2013-04-16 04:40:00,49.1,39.8,30.22,SSE,158,0.0,0.0,70,0.00,,---,0.00,VWS V14.01,2013-04-16 08:40:00,
2013-04-16 04:45:00,49.1,39.8,30.22,SE,135,7.1,7.1,70,0.00,,---,0.00,VWS V14.01,2013-04-16 08:45:00,
2013-04-16 04:50:00,49.1,39.8,30.22,South,180,0.0,0.0,70,0.00,,---,0.00,VWS V14.01,2013-04-16 08:50:00,
2013-04-16 04:55:00,49.1,39.8,30.22,South,180,4.2,4.2,70,0.00,,---,0.00,VWS V14.01,2013-04-16 08:55:00,
2013-04-16 05:00:00,49.1,39.8,30.21,NE,45,0.0,7.8,70,0.00,,---,0.00,VWS V14.01,2013-04-16 09:00:00,
2013-04-16 05:05:00,49.1,39.8,30.21,East,90,0.0,0.0,70,0.00,,---,0.00,VWS V14.01,2013-04-16 09:05:00,
2013-04-16 05:10:00,49.1,39.8,30.22,SSE,158,0.0,0.0,70,0.00,,---,0.00,VWS V14.01,2013-04-16 09:10:00,
2013-04-16 05:15:00,49.1,39.8,30.21,South,180,2.9,2.9,70,0.00,,---,0.00,VWS V14.01,2013-04-16 09:15:00,
2013-04-16 05:20:00,49.1,39.8,30.21,SE,135,7.1,7.1,70,0.00,,---,0.00,VWS V14.01,2013-04-16 09:20:00,
2013-04-16 05:25:00,49.1,39.8,30.21,SSE,158,8.0,8.0,70,0.00,,---,0.00,VWS V14.01,2013-04-16 09:25:00,
2013-04-16 05:30:00,49.1,39.8,30.22,SSE,158,0.0,0.0,70,0.00,,---,0.00,VWS V14.01,2013-04-16 09:30:00,
2013-04-16 05:35:00,49.1,39.8,30.22,SSE,158,6.4,6.4,70,0.00,,---,0.00,VWS V14.01,2013-04-16 09:35:00,
2013-04-16 05:40:00,49.1,39.8,30.22,SSE,158,7.6,7.6,70,0.00,,---,0.00,VWS V14.01,2013-04-16 09:40:00,
2013-04-16 05:45:00,49.1,39.8,30.21,SE,135,7.3,7.3,70,0.00,,---,0.00,VWS V14.01,2013-04-16 09:45:00,
2013-04-16 05:50:00,48.9,39.6,30.22,SE,135,5.8,5.8,70,0.00,,---,0.00,VWS V14.01,2013-04-16 09:50:00,
2013-04-16 05:55:00,48.9,39.6,30.21,SE,135,7.3,7.3,70,0.00,,---,0.00,VWS V14.01,2013-04-16 09:55:00,
2013-04-16 06:00:00,48.9,39.6,30.21,SSE,158,1.7,1.7,70,0.00,,---,0.00,VWS V14.01,2013-04-16 10:00:00,
2013-04-16 06:05:00,48.7,39.4,30.21,SSE,158,0.0,0.0,70,0.00,,---,0.00,VWS V14.01,2013-04-16 10:05:00,
2013-04-16 06:10:00,48.7,39.4,30.22,SE,135,6.0,6.0,70,0.00,,---,0.00,VWS V14.01,2013-04-16 10:10:00,
2013-04-16 06:15:00,48.7,39.4,30.21,SSE,158,6.0,6.0,70,0.00,,---,0.00,VWS V14.01,2013-04-16 10:15:00,
2013-04-16 06:20:00,48.7,39.4,30.21,SE,135,11.1,11.1,70,0.00,,---,0.00,VWS V14.01,2013-04-16 10:20:00,
2013-04-16 06:25:00,48.7,39.4,30.21,SE,135,5.3,5.3,70,0.00,,---,0.00,VWS V14.01,2013-04-16 10:25:00,
2013-04-16 06:30:00,48.7,39.0,30.21,SSE,158,5.5,5.5,69,0.00,,---,0.00,VWS V14.01,2013-04-16 10:30:00,
2013-04-16 06:35:00,48.9,39.2,30.21,South,180,0.0,0.0,69,0.00,,---,0.00,VWS V14.01,2013-04-16 10:35:00,
2013-04-16 06:40:00,48.9,39.2,30.21,SE,135,5.3,5.3,69,0.00,,---,0.00,VWS V14.01,2013-04-16 10:40:00,
2013-04-16 06:45:00,48.9,39.2,30.21,South,180,0.0,0.0,69,0.00,,---,0.00,VWS V14.01,2013-04-16 10:45:00,
2013-04-16 06:50:00,48.9,39.2,30.21,SSE,158,2.6,2.6,69,0.00,,---,0.00,VWS V14.01,2013-04-16 10:50:00,
2013-04-16 06:55:00,48.9,39.2,30.21,ESE,112,10.7,10.7,69,0.00,,---,0.00,VWS V14.01,2013-04-16 10:55:00,
2013-04-16 07:00:00,48.9,39.2,30.20,SE,135,4.0,6.0,69,0.00,,---,0.00,VWS V14.01,2013-04-16 11:00:00,
2013-04-16 07:05:00,49.1,39.4,30.20,SE,135,9.8,9.8,69,0.00,,---,0.00,VWS V14.01,2013-04-16 11:05:00,
2013-04-16 07:10:00,49.2,39.5,30.20,SSE,158,0.2,0.2,69,0.00,,---,0.00,VWS V14.01,2013-04-16 11:10:00,
2013-04-16 07:15:00,49.2,39.5,30.20,SE,135,14.3,14.3,69,0.00,,---,0.00,VWS V14.01,2013-04-16 11:15:00,
2013-04-16 07:20:00,49.6,39.9,30.20,SE,135,2.2,2.2,69,0.00,,---,0.00,VWS V14.01,2013-04-16 11:20:00,
2013-04-16 07:25:00,49.6,39.9,30.20,South,180,5.1,5.1,69,0.00,,---,0.00,VWS V14.01,2013-04-16 11:25:00,
2013-04-16 07:30:00,49.6,39.9,30.20,SE,135,0.0,0.0,69,0.00,,---,0.00,VWS V14.01,2013-04-16 11:30:00,
2013-04-16 07:35:00,49.8,40.0,30.20,SSE,158,0.0,0.0,69,0.00,,---,0.00,VWS V14.01,2013-04-16 11:35:00,
2013-04-16 07:40:00,49.8,40.0,30.20,SE,135,8.2,8.2,69,0.00,,---,0.00,VWS V14.01,2013-04-16 11:40:00,
2013-04-16 07:45:00,49.8,40.0,30.20,SE,135,9.3,9.3,69,0.00,,---,0.00,VWS V14.01,2013-04-16 11:45:00,
2013-04-16 07:50:00,49.8,40.0,30.20,South,180,0.0,0.0,69,0.00,,---,0.00,VWS V14.01,2013-04-16 11:50:00,
2013-04-16 07:55:00,49.8,40.0,30.20,SSW,202,0.0,0.0,69,0.00,,---,0.00,VWS V14.01,2013-04-16 11:55:00,
2013-04-16 08:00:00,50.1,40.3,30.20,South,180,0.0,0.0,69,0.00,,---,0.00,VWS V14.01,2013-04-16 12:00:00,
2013-04-16 08:05:00,50.1,40.7,30.19,SSE,158,0.0,0.0,70,0.00,,---,0.00,VWS V14.01,2013-04-16 12:05:00,
2013-04-16 08:10:00,50.1,40.7,30.19,South,180,14.5,14.5,70,0.00,,---,0.00,VWS V14.01,2013-04-16 12:10:00,
2013-04-16 08:15:00,50.3,40.9,30.19,SSE,158,6.7,6.7,70,0.00,,---,0.00,VWS V14.01,2013-04-16 12:15:00,
2013-04-16 08:20:00,50.3,40.9,30.19,SSE,158,7.8,7.8,70,0.00,,---,0.00,VWS V14.01,2013-04-16 12:20:00,
2013-04-16 08:25:00,50.5,41.5,30.19,NNW,338,0.0,0.0,71,0.00,,---,0.00,VWS V14.01,2013-04-16 12:25:00,
2013-04-16 08:30:00,50.7,41.7,30.18,SE,135,6.0,6.0,71,0.00,,---,0.00,VWS V14.01,2013-04-16 12:30:00,
2013-04-16 08:35:00,50.9,41.8,30.18,NNW,338,0.0,0.0,71,0.00,,---,0.00,VWS V14.01,2013-04-16 12:35:00,
2013-04-16 08:40:00,50.9,41.8,30.18,SE,135,7.1,7.1,71,0.00,,---,0.00,VWS V14.01,2013-04-16 12:40:00,
2013-04-16 08:45:00,51.0,41.9,30.17,SSE,158,0.0,0.0,71,0.00,,---,0.00,VWS V14.01,2013-04-16 12:45:00,
2013-04-16 08:50:00,51.4,42.3,30.18,SE,135,4.9,4.9,71,0.00,,---,0.00,VWS V14.01,2013-04-16 12:50:00,
2013-04-16 08:55:00,51.6,42.2,30.17,SSE,158,10.0,10.0,70,0.00,,---,0.00,VWS V14.01,2013-04-16 12:55:00,
2013-04-16 09:00:00,51.6,42.2,30.17,SE,135,7.6,7.6,70,0.00,,---,0.00,VWS V14.01,2013-04-16 13:00:00,
2013-04-16 09:05:00,51.9,42.4,30.18,East,90,13.6,13.6,70,0.00,,---,0.00,VWS V14.01,2013-04-16 13:05:00,
2013-04-16 09:10:00,52.1,42.6,30.18,SSE,158,0.0,0.0,70,0.00,,---,0.00,VWS V14.01,2013-04-16 13:10:00,
2013-04-16 09:15:00,51.9,42.4,30.18,SE,135,6.9,6.9,70,0.00,,---,0.00,VWS V14.01,2013-04-16 13:15:00,
2013-04-16 09:20:00,51.9,42.4,30.17,SE,135,5.5,5.5,70,0.00,,---,0.00,VWS V14.01,2013-04-16 13:20:00,
2013-04-16 09:25:00,51.9,42.4,30.17,SE,135,4.4,4.4,70,0.00,,---,0.00,VWS V14.01,2013-04-16 13:25:00,
2013-04-16 09:30:00,51.9,42.4,30.17,SE,135,0.0,0.0,70,0.00,,---,0.00,VWS V14.01,2013-04-16 13:30:00,
2013-04-16 09:35:00,52.3,42.8,30.16,NW,315,7.1,7.1,70,0.00,,---,0.00,VWS V14.01,2013-04-16 13:35:00,
2013-04-16 09:40:00,52.3,42.8,30.16,SSE,158,9.3,9.3,70,0.00,,---,0.00,VWS V14.01,2013-04-16 13:40:00,
2013-04-16 09:45:00,52.5,43.0,30.16,SE,135,1.5,1.5,70,0.00,,---,0.00,VWS V14.01,2013-04-16 13:45:00,
2013-04-16 09:50:00,52.7,43.2,30.16,SE,135,0.0,0.0,70,0.00,,---,0.00,VWS V14.01,2013-04-16 13:50:00,
2013-04-16 09:55:00,52.8,43.3,30.16,SE,135,10.5,10.5,70,0.00,,---,0.00,VWS V14.01,2013-04-16 13:55:00,
2013-04-16 10:00:00,53.0,43.5,30.16,SE,135,11.6,11.6,70,0.00,,---,0.00,VWS V14.01,2013-04-16 14:00:00,
2013-04-16 10:05:00,53.2,43.7,30.15,SSE,158,0.0,0.0,70,0.00,,---,0.00,VWS V14.01,2013-04-16 14:05:00,
2013-04-16 10:10:00,53.2,43.7,30.15,SE,135,7.8,7.8,70,0.00,,---,0.00,VWS V14.01,2013-04-16 14:10:00,
2013-04-16 10:15:00,53.2,43.7,30.15,SE,135,7.3,7.3,70,0.00,,---,0.00,VWS V14.01,2013-04-16 14:15:00,
2013-04-16 10:20:00,53.2,43.7,30.15,WSW,248,0.0,0.0,70,0.00,,---,0.00,VWS V14.01,2013-04-16 14:20:00,
2013-04-16 10:25:00,53.4,43.9,30.15,ESE,112,6.2,6.2,70,0.00,,---,0.00,VWS V14.01,2013-04-16 14:25:00,
2013-04-16 10:30:00,53.2,43.7,30.15,SE,135,0.0,0.0,70,0.00,,---,0.00,VWS V14.01,2013-04-16 14:30:00,
2013-04-16 10:35:00,53.2,43.7,30.14,SSE,158,0.0,0.0,70,0.00,,---,0.00,VWS V14.01,2013-04-16 14:35:00,
2013-04-16 10:40:00,53.4,43.9,30.13,SE,135,8.9,8.9,70,0.00,,---,0.00,VWS V14.01,2013-04-16 14:40:00,
2013-04-16 10:45:00,53.4,43.9,30.14,SSE,158,0.0,0.0,70,0.00,,---,0.00,VWS V14.01,2013-04-16 14:45:00,
2013-04-16 10:50:00,53.6,44.1,30.14,SSE,158,2.9,2.9,70,0.00,,---,0.00,VWS V14.01,2013-04-16 14:50:00,
2013-04-16 10:55:00,53.7,44.2,30.13,SSE,158,0.0,0.0,70,0.00,,---,0.00,VWS V14.01,2013-04-16 14:55:00,
2013-04-16 11:00:00,54.3,44.7,30.13,SE,135,5.1,5.1,70,0.00,,---,0.00,VWS V14.01,2013-04-16 15:00:00,
2013-04-16 11:05:00,55.0,45.4,30.13,SE,135,8.5,8.5,70,0.00,,---,0.00,VWS V14.01,2013-04-16 15:05:00,
2013-04-16 11:10:00,55.4,45.4,30.13,ESE,112,5.8,5.8,69,0.00,,---,0.00,VWS V14.01,2013-04-16 15:10:00,
2013-04-16 11:15:00,55.7,45.7,30.13,SE,135,6.0,6.0,69,0.00,,---,0.00,VWS V14.01,2013-04-16 15:15:00,
2013-04-16 11:20:00,55.7,45.3,30.13,NW,315,1.1,1.1,68,0.00,,---,0.00,VWS V14.01,2013-04-16 15:20:00,
2013-04-16 11:25:00,55.5,45.1,30.13,SW,225,4.4,4.4,68,0.00,,---,0.00,VWS V14.01,2013-04-16 15:25:00,
2013-04-16 11:30:00,55.2,44.8,30.13,SE,135,0.0,0.0,68,0.00,,---,0.00,VWS V14.01,2013-04-16 15:30:00,
2013-04-16 11:35:00,55.2,44.8,30.13,SSE,158,0.0,0.0,68,0.00,,---,0.00,VWS V14.01,2013-04-16 15:35:00,
2013-04-16 11:40:00,54.8,44.8,30.13,WNW,292,3.1,3.1,69,0.00,,---,0.00,VWS V14.01,2013-04-16 15:40:00,
2013-04-16 11:45:00,54.8,44.8,30.12,SSE,158,12.7,12.7,69,0.00,,---,0.00,VWS V14.01,2013-04-16 15:45:00,
2013-04-16 11:50:00,54.6,44.7,30.12,NW,315,0.0,0.0,69,0.00,,---,0.00,VWS V14.01,2013-04-16 15:50:00,
2013-04-16 11:55:00,54.8,44.8,30.12,SE,135,7.1,7.1,69,0.00,,---,0.00,VWS V14.01,2013-04-16 15:55:00,
2013-04-16 12:00:00,54.8,44.8,30.12,SSW,202,6.2,6.2,69,0.00,,---,0.00,VWS V14.01,2013-04-16 16:00:00,
2013-04-16 12:05:00,54.6,44.7,30.13,SE,135,6.2,6.2,69,0.00,,---,0.00,VWS V14.01,2013-04-16 16:05:00,
2013-04-16 12:10:00,54.6,44.7,30.12,SSE,158,0.0,0.0,69,0.00,,---,0.00,VWS V14.01,2013-04-16 16:10:00,
2013-04-16 12:15:00,54.3,44.7,30.12,East,90,0.0,0.0,70,0.00,,---,0.00,VWS V14.01,2013-04-16 16:15:00,
2013-04-16 12:20:00,54.1,44.5,30.12,SSE,158,6.2,6.2,70,0.00,,---,0.00,VWS V14.01,2013-04-16 16:20:00,
2013-04-16 12:25:00,53.9,44.3,30.12,SE,135,0.0,0.0,70,0.00,,---,0.00,VWS V14.01,2013-04-16 16:25:00,
2013-04-16 12:30:00,53.7,44.2,30.11,WNW,292,6.0,6.0,70,0.00,,---,0.00,VWS V14.01,2013-04-16 16:30:00,
2013-04-16 12:35:00,53.6,44.4,30.12,SE,135,3.3,3.3,71,0.00,,---,0.00,VWS V14.01,2013-04-16 16:35:00,
2013-04-16 12:40:00,53.4,44.2,30.12,SSW,202,0.0,0.0,71,0.00,,---,0.00,VWS V14.01,2013-04-16 16:40:00,
2013-04-16 12:45:00,53.4,44.2,30.12,NW,315,0.0,0.0,71,0.00,,---,0.00,VWS V14.01,2013-04-16 16:45:00,
2013-04-16 12:50:00,53.2,44.0,30.12,SE,135,0.0,0.0,71,0.00,,---,0.00,VWS V14.01,2013-04-16 16:50:00,
2013-04-16 12:55:00,53.2,44.0,30.12,SE,135,0.0,0.0,71,0.00,,---,0.00,VWS V14.01,2013-04-16 16:55:00,
2013-04-16 13:00:00,53.2,44.4,30.12,SSE,158,6.7,6.7,72,0.00,,---,0.00,VWS V14.01,2013-04-16 17:00:00,
2013-04-16 13:05:00,52.7,44.3,30.12,SSE,158,2.4,2.4,73,0.02,,---,0.02,VWS V14.01,2013-04-16 17:05:00,
2013-04-16 13:10:00,52.5,44.5,30.13,SW,225,0.0,0.0,74,0.04,,---,0.04,VWS V14.01,2013-04-16 17:10:00,
2013-04-16 13:15:00,52.3,44.6,30.12,NNW,338,0.0,0.0,75,0.04,,---,0.04,VWS V14.01,2013-04-16 17:15:00,
2013-04-16 13:20:00,51.9,44.2,30.12,NNW,338,0.0,0.0,75,0.04,,---,0.04,VWS V14.01,2013-04-16 17:20:00,
2013-04-16 13:25:00,51.8,44.5,30.13,SSE,158,0.0,0.0,76,0.04,,---,0.04,VWS V14.01,2013-04-16 17:25:00,
2013-04-16 13:30:00,51.6,44.3,30.12,SE,135,0.0,0.0,76,0.06,,---,0.06,VWS V14.01,2013-04-16 17:30:00,
2013-04-16 13:35:00,51.4,44.4,30.12,SSE,158,0.0,0.0,77,0.06,,---,0.06,VWS V14.01,2013-04-16 17:35:00,
2013-04-16 13:40:00,51.4,44.4,30.12,SSE,158,11.4,11.4,77,0.06,,---,0.06,VWS V14.01,2013-04-16 17:40:00,
2013-04-16 13:45:00,51.4,44.8,30.12,South,180,0.0,0.0,78,0.06,,---,0.06,VWS V14.01,2013-04-16 17:45:00,
2013-04-16 13:50:00,51.2,44.9,30.12,SE,135,0.0,0.0,79,0.06,,---,0.06,VWS V14.01,2013-04-16 17:50:00,
2013-04-16 13:55:00,51.2,44.9,30.11,WNW,292,0.0,0.0,79,0.08,,---,0.08,VWS V14.01,2013-04-16 17:55:00,
2013-04-16 14:00:00,51.2,44.9,30.11,SW,225,0.0,0.0,79,0.08,,---,0.00,VWS V14.01,2013-04-16 18:00:00,
2013-04-16 14:05:00,51.0,45.1,30.11,SE,135,2.2,2.2,80,0.06,,---,0.08,VWS V14.01,2013-04-16 18:05:00,
2013-04-16 14:10:00,51.0,45.1,30.11,South,180,0.0,0.0,80,0.04,,---,0.08,VWS V14.01,2013-04-16 18:10:00,
2013-04-16 14:15:00,51.0,45.1,30.10,South,180,0.0,0.0,80,0.04,,---,0.08,VWS V14.01,2013-04-16 18:15:00,
2013-04-16 14:20:00,51.0,45.4,30.10,SE,135,4.2,4.2,81,0.04,,---,0.08,VWS V14.01,2013-04-16 18:20:00,
2013-04-16 14:25:00,51.0,45.4,30.10,SSE,158,7.8,7.8,81,0.04,,---,0.08,VWS V14.01,2013-04-16 18:25:00,
2013-04-16 14:30:00,51.2,45.6,30.09,NNW,338,0.0,0.0,81,0.02,,---,0.08,VWS V14.01,2013-04-16 18:30:00,
2013-04-16 14:35:00,51.4,46.1,30.08,SE,135,1.1,1.1,82,0.02,,---,0.08,VWS V14.01,2013-04-16 18:35:00,
2013-04-16 14:40:00,51.4,46.1,30.09,SE,135,6.0,6.0,82,0.02,,---,0.08,VWS V14.01,2013-04-16 18:40:00,
2013-04-16 14:45:00,51.6,46.3,30.08,SE,135,0.0,0.0,82,0.02,,---,0.08,VWS V14.01,2013-04-16 18:45:00,
2013-04-16 14:50:00,51.6,46.3,30.09,SSE,158,4.2,4.2,82,0.02,,---,0.08,VWS V14.01,2013-04-16 18:50:00,
2013-04-16 14:55:00,51.9,46.6,30.09,SE,135,3.8,3.8,82,0.00,,---,0.08,VWS V14.01,2013-04-16 18:55:00,
2013-04-16 15:00:00,51.9,46.6,30.09,SSE,158,5.8,5.8,82,0.00,,---,0.00,VWS V14.01,2013-04-16 19:00:00,
2013-04-16 15:05:00,51.9,46.6,30.08,SE,135,0.0,0.0,82,0.00,,---,0.08,VWS V14.01,2013-04-16 19:05:00,
2013-04-16 15:10:00,51.9,46.6,30.09,SSE,158,4.2,4.2,82,0.00,,---,0.08,VWS V14.01,2013-04-16 19:10:00,
2013-04-16 15:15:00,51.9,46.6,30.08,NNW,338,0.0,0.0,82,0.00,,---,0.08,VWS V14.01,2013-04-16 19:15:00,
2013-04-16 15:20:00,51.6,46.0,30.08,NW,315,0.0,0.0,81,0.00,,---,0.08,VWS V14.01,2013-04-16 19:20:00,
2013-04-16 15:25:00,51.6,46.0,30.08,NNW,338,0.0,0.0,81,0.00,,---,0.08,VWS V14.01,2013-04-16 19:25:00,
2013-04-16 15:30:00,51.6,46.0,30.08,NW,315,0.0,0.0,81,0.00,,---,0.08,VWS V14.01,2013-04-16 19:30:00,
2013-04-16 15:35:00,51.6,46.3,30.08,North,0,0.0,0.0,82,0.00,,---,0.08,VWS V14.01,2013-04-16 19:35:00,
2013-04-16 15:40:00,51.4,46.1,30.08,WNW,292,0.0,0.0,82,0.00,,---,0.08,VWS V14.01,2013-04-16 19:40:00,
2013-04-16 15:45:00,51.4,46.1,30.08,WSW,248,0.0,0.0,82,0.00,,---,0.08,VWS V14.01,2013-04-16 19:45:00,
2013-04-16 15:50:00,51.4,46.1,30.08,South,180,0.0,0.0,82,0.00,,---,0.08,VWS V14.01,2013-04-16 19:50:00,
2013-04-16 15:55:00,51.4,46.4,30.07,SSE,158,0.0,0.0,83,0.00,,---,0.08,VWS V14.01,2013-04-16 19:55:00,
2013-04-16 16:00:00,51.4,46.4,30.07,SE,135,0.0,0.0,83,0.00,,---,0.00,VWS V14.01,2013-04-16 20:00:00,
2013-04-16 16:05:00,51.4,46.4,30.07,NW,315,0.0,0.0,83,0.00,,---,0.08,VWS V14.01,2013-04-16 20:05:00,
2013-04-16 16:10:00,51.4,46.4,30.07,NE,45,0.0,0.0,83,0.00,,---,0.08,VWS V14.01,2013-04-16 20:10:00,
2013-04-16 16:15:00,51.4,46.4,30.07,WNW,292,0.0,0.0,83,0.00,,---,0.08,VWS V14.01,2013-04-16 20:15:00,
2013-04-16 16:20:00,51.4,46.4,30.07,SE,135,0.0,0.0,83,0.00,,---,0.08,VWS V14.01,2013-04-16 20:20:00,
2013-04-16 16:25:00,51.6,46.6,30.06,SE,135,0.0,0.0,83,0.00,,---,0.08,VWS V14.01,2013-04-16 20:25:00,
2013-04-16 16:30:00,51.6,46.6,30.06,SSE,158,4.0,4.0,83,0.00,,---,0.08,VWS V14.01,2013-04-16 20:30:00,
2013-04-16 16:35:00,51.6,46.6,30.06,West,270,0.0,0.0,83,0.00,,---,0.08,VWS V14.01,2013-04-16 20:35:00,
2013-04-16 16:40:00,51.6,46.6,30.06,SE,135,0.0,0.0,83,0.00,,---,0.08,VWS V14.01,2013-04-16 20:40:00,
2013-04-16 16:45:00,51.6,46.6,30.05,SSE,158,0.0,0.0,83,0.00,,---,0.08,VWS V14.01,2013-04-16 20:45:00,
2013-04-16 16:50:00,51.6,46.9,30.05,West,270,0.0,0.0,84,0.00,,---,0.08,VWS V14.01,2013-04-16 20:50:00,
2013-04-16 16:55:00,51.6,46.9,30.05,East,90,0.0,0.0,84,0.00,,---,0.08,VWS V14.01,2013-04-16 20:55:00,
2013-04-16 17:00:00,51.8,47.1,30.05,SE,135,1.7,1.7,84,0.00,,---,0.00,VWS V14.01,2013-04-16 21:00:00,
2013-04-16 17:05:00,51.8,47.1,30.05,SE,135,0.0,0.0,84,0.00,,---,0.08,VWS V14.01,2013-04-16 21:05:00,
2013-04-16 17:10:00,51.9,47.2,30.05,SE,135,1.5,1.5,84,0.00,,---,0.08,VWS V14.01,2013-04-16 21:10:00,
2013-04-16 17:15:00,51.8,47.1,30.04,North,0,0.0,0.0,84,0.00,,---,0.08,VWS V14.01,2013-04-16 21:15:00,
2013-04-16 17:20:00,51.9,47.2,30.05,NW,315,0.0,0.0,84,0.00,,---,0.08,VWS V14.01,2013-04-16 21:20:00,
2013-04-16 17:25:00,51.9,47.2,30.05,ENE,68,0.0,0.0,84,0.00,,---,0.08,VWS V14.01,2013-04-16 21:25:00,
2013-04-16 17:30:00,51.8,47.1,30.05,SE,135,0.0,0.0,84,0.00,,---,0.08,VWS V14.01,2013-04-16 21:30:00,
2013-04-16 17:35:00,51.6,46.9,30.04,WNW,292,0.0,0.0,84,0.00,,---,0.08,VWS V14.01,2013-04-16 21:35:00,
2013-04-16 17:40:00,51.6,46.9,30.05,SE,135,0.0,0.0,84,0.00,,---,0.08,VWS V14.01,2013-04-16 21:40:00,
2013-04-16 17:45:00,51.6,46.9,30.05,SE,135,0.0,0.0,84,0.00,,---,0.08,VWS V14.01,2013-04-16 21:45:00,
2013-04-16 17:50:00,51.6,46.9,30.05,WNW,292,0.0,0.0,84,0.00,,---,0.08,VWS V14.01,2013-04-16 21:50:00,
2013-04-16 17:55:00,51.6,46.9,30.04,SE,135,0.0,0.0,84,0.02,,---,0.10,VWS V14.01,2013-04-16 21:55:00,
2013-04-16 18:00:00,51.6,46.9,30.04,NNE,22,0.0,0.0,84,0.02,,---,0.00,VWS V14.01,2013-04-16 22:00:00,
2013-04-16 18:05:00,51.4,47.0,30.04,NE,45,0.0,0.0,85,0.02,,---,0.10,VWS V14.01,2013-04-16 22:05:00,
2013-04-16 18:10:00,51.4,47.0,30.04,SE,135,0.0,0.0,85,0.02,,---,0.10,VWS V14.01,2013-04-16 22:10:00,
2013-04-16 18:15:00,51.4,47.0,30.04,SE,135,0.0,0.0,85,0.02,,---,0.10,VWS V14.01,2013-04-16 22:15:00,
2013-04-16 18:20:00,51.4,47.0,30.04,SE,135,0.0,0.0,85,0.04,,---,0.12,VWS V14.01,2013-04-16 22:20:00,
2013-04-16 18:25:00,51.4,47.0,30.04,SSE,158,0.0,0.0,85,0.04,,---,0.12,VWS V14.01,2013-04-16 22:25:00,
2013-04-16 18:30:00,51.4,47.4,30.04,SE,135,0.0,0.0,86,0.04,,---,0.12,VWS V14.01,2013-04-16 22:30:00,
2013-04-16 18:35:00,51.4,47.4,30.03,NW,315,6.7,6.7,86,0.04,,---,0.12,VWS V14.01,2013-04-16 22:35:00,
2013-04-16 18:40:00,51.4,47.4,30.04,NNE,22,0.0,0.0,86,0.04,,---,0.12,VWS V14.01,2013-04-16 22:40:00,
2013-04-16 18:45:00,51.4,47.4,30.04,WNW,292,0.0,0.0,86,0.04,,---,0.12,VWS V14.01,2013-04-16 22:45:00,
2013-04-16 18:50:00,51.4,47.4,30.04,SE,135,0.0,0.0,86,0.04,,---,0.12,VWS V14.01,2013-04-16 22:50:00,
2013-04-16 18:55:00,51.2,47.2,30.04,SE,135,0.0,0.0,86,0.02,,---,0.12,VWS V14.01,2013-04-16 22:55:00,
2013-04-16 19:00:00,51.0,46.7,30.05,WNW,292,4.6,4.6,85,0.02,,---,0.00,VWS V14.01,2013-04-16 23:00:00,
2013-04-16 19:05:00,51.0,47.0,30.05,NNW,338,0.0,0.0,86,0.02,,---,0.12,VWS V14.01,2013-04-16 23:05:00,
2013-04-16 19:10:00,51.0,47.0,30.06,North,0,0.0,0.0,86,0.06,,---,0.16,VWS V14.01,2013-04-16 23:10:00,
2013-04-16 19:15:00,51.0,47.0,30.07,SW,225,0.0,0.0,86,0.06,,---,0.16,VWS V14.01,2013-04-16 23:15:00,
2013-04-16 19:20:00,51.0,47.3,30.08,North,0,5.5,5.5,87,0.04,,---,0.16,VWS V14.01,2013-04-16 23:20:00,
2013-04-16 19:25:00,51.0,47.3,30.07,NW,315,0.0,0.0,87,0.06,,---,0.19,VWS V14.01,2013-04-16 23:25:00,
2013-04-16 19:30:00,50.9,47.2,30.07,NW,315,0.0,0.0,87,0.08,,---,0.20,VWS V14.01,2013-04-16 23:30:00,
2013-04-16 19:35:00,50.9,47.2,30.07,WNW,292,0.0,0.0,87,0.10,,---,0.22,VWS V14.01,2013-04-16 23:35:00,
2013-04-16 19:40:00,50.9,47.2,30.06,NNW,338,0.0,0.0,87,0.10,,---,0.22,VWS V14.01,2013-04-16 23:40:00,
2013-04-16 19:45:00,50.7,47.0,30.07,NNE,22,0.0,0.0,87,0.12,,---,0.24,VWS V14.01,2013-04-16 23:45:00,
2013-04-16 19:50:00,50.7,47.0,30.07,NNW,338,0.0,0.0,87,0.12,,---,0.24,VWS V14.01,2013-04-16 23:50:00,
2013-04-16 19:55:00,50.7,47.0,30.08,North,0,0.0,0.0,87,0.12,,---,0.24,VWS V14.01,2013-04-16 23:55:00,
2013-04-16 20:00:00,50.7,47.0,30.08,NW,315,0.0,0.0,87,0.14,,---,0.00,VWS V14.01,2013-04-17 00:00:00,
2013-04-16 20:05:00,50.7,47.0,30.09,NW,315,7.6,7.6,87,0.19,,---,0.31,VWS V14.01,2013-04-17 00:05:00,
2013-04-16 20:10:00,50.7,47.0,30.09,NE,45,0.0,0.0,87,0.17,,---,0.33,VWS V14.01,2013-04-17 00:10:00,
2013-04-16 20:15:00,50.7,47.0,30.09,NNW,338,0.0,0.0,87,0.17,,---,0.33,VWS V14.01,2013-04-17 00:15:00,
2013-04-16 20:20:00,50.5,46.8,30.09,NNW,338,0.0,0.0,87,0.17,,---,0.33,VWS V14.01,2013-04-17 00:20:00,
2013-04-16 20:25:00,50.3,46.6,30.10,NNW,338,0.0,0.0,87,0.14,,---,0.33,VWS V14.01,2013-04-17 00:25:00,
2013-04-16 20:30:00,50.3,46.3,30.11,SW,225,0.0,0.0,86,0.12,,---,0.33,VWS V14.01,2013-04-17 00:30:00,
2013-04-16 20:35:00,50.1,46.1,30.12,SW,225,0.0,0.0,86,0.10,,---,0.33,VWS V14.01,2013-04-17 00:35:00,
2013-04-16 20:40:00,49.8,45.8,30.12,WNW,292,0.0,0.0,86,0.10,,---,0.33,VWS V14.01,2013-04-17 00:40:00,
2013-04-16 20:45:00,49.6,45.3,30.12,NW,315,0.0,0.0,85,0.08,,---,0.33,VWS V14.01,2013-04-17 00:45:00,
2013-04-16 20:50:00,49.2,44.9,30.12,North,0,0.0,0.0,85,0.08,,---,0.33,VWS V14.01,2013-04-17 00:50:00,
2013-04-16 20:55:00,49.1,44.5,30.14,WNW,292,0.0,0.0,84,0.08,,---,0.33,VWS V14.01,2013-04-17 00:55:00,
2013-04-16 21:00:00,48.7,44.1,30.14,NNW,338,0.0,0.0,84,0.06,,---,0.00,VWS V14.01,2013-04-17 01:00:00,
2013-04-16 21:05:00,48.3,43.1,30.15,NNW,338,0.0,0.0,82,0.02,,---,0.33,VWS V14.01,2013-04-17 01:05:00,
2013-04-16 21:10:00,48.0,42.8,30.15,NW,315,0.0,0.0,82,0.00,,---,0.33,VWS V14.01,2013-04-17 01:10:00,
2013-04-16 21:15:00,47.8,42.6,30.15,North,0,0.0,0.0,82,0.00,,---,0.33,VWS V14.01,2013-04-17 01:15:00,
2013-04-16 21:20:00,47.3,42.1,30.16,NW,315,0.0,0.0,82,0.00,,---,0.33,VWS V14.01,2013-04-17 01:20:00,
2013-04-16 21:25:00,47.1,41.6,30.16,NW,315,0.0,0.0,81,0.00,,---,0.33,VWS V14.01,2013-04-17 01:25:00,
2013-04-16 21:30:00,46.7,41.2,30.16,North,0,0.0,0.0,81,0.00,,---,0.33,VWS V14.01,2013-04-17 01:30:00,
2013-04-16 21:35:00,46.2,40.7,30.16,WSW,248,0.0,0.0,81,0.00,,---,0.33,VWS V14.01,2013-04-17 01:35:00,
2013-04-16 21:40:00,46.0,40.5,30.16,NNW,338,0.0,0.0,81,0.00,,---,0.33,VWS V14.01,2013-04-17 01:40:00,
2013-04-16 21:45:00,45.6,40.1,30.17,ESE,112,0.0,0.0,81,0.00,,---,0.33,VWS V14.01,2013-04-17 01:45:00,
2013-04-16 21:50:00,45.3,39.8,30.17,NE,45,0.0,0.0,81,0.00,,---,0.33,VWS V14.01,2013-04-17 01:50:00,
2013-04-16 21:55:00,45.1,39.6,30.17,NNE,22,0.0,0.0,81,0.00,,---,0.33,VWS V14.01,2013-04-17 01:55:00,
2013-04-16 22:00:00,44.9,39.4,30.17,ENE,68,0.0,0.0,81,0.00,,---,0.00,VWS V14.01,2013-04-17 02:00:00,
2013-04-16 22:05:00,44.4,38.9,30.17,ENE,68,0.0,0.0,81,0.00,,---,0.33,VWS V14.01,2013-04-17 02:05:00,
2013-04-16 22:10:00,44.4,38.9,30.17,North,0,0.0,0.0,81,0.00,,---,0.33,VWS V14.01,2013-04-17 02:10:00,
2013-04-16 22:15:00,43.8,38.4,30.18,SE,135,0.0,0.0,81,0.00,,---,0.33,VWS V14.01,2013-04-17 02:15:00,
2013-04-16 22:20:00,43.5,38.4,30.18,WNW,292,0.0,0.0,82,0.00,,---,0.33,VWS V14.01,2013-04-17 02:20:00,
2013-04-16 22:25:00,43.3,37.9,30.18,NW,315,0.0,0.0,81,0.00,,---,0.33,VWS V14.01,2013-04-17 02:25:00,
2013-04-16 22:30:00,43.1,37.7,30.18,North,0,0.0,0.0,81,0.00,,---,0.33,VWS V14.01,2013-04-17 02:30:00,
2013-04-16 22:35:00,42.8,37.7,30.18,NE,45,0.0,0.0,82,0.00,,---,0.33,VWS V14.01,2013-04-17 02:35:00,
2013-04-16 22:40:00,42.6,37.5,30.18,NW,315,0.0,0.0,82,0.00,,---,0.33,VWS V14.01,2013-04-17 02:40:00,
2013-04-16 22:45:00,42.6,37.5,30.18,WSW,248,0.0,0.0,82,0.00,,---,0.33,VWS V14.01,2013-04-17 02:45:00,
2013-04-16 22:50:00,42.4,37.3,30.18,NW,315,0.0,0.0,82,0.00,,---,0.33,VWS V14.01,2013-04-17 02:50:00,
2013-04-16 22:55:00,42.2,37.1,30.18,NNW,338,0.0,0.0,82,0.00,,---,0.33,VWS V14.01,2013-04-17 02:55:00,
2013-04-16 23:00:00,42.0,36.9,30.19,North,0,0.0,0.0,82,0.00,,---,0.00,VWS V14.01,2013-04-17 03:00:00,
2013-04-16 23:05:00,41.9,37.1,30.19,WNW,292,0.0,0.0,83,0.00,,---,0.33,VWS V14.01,2013-04-17 03:05:00,
2013-04-16 23:10:00,41.7,36.9,30.19,NW,315,0.0,0.0,83,0.00,,---,0.33,VWS V14.01,2013-04-17 03:10:00,
2013-04-16 23:15:00,41.7,36.9,30.19,WNW,292,0.0,0.0,83,0.00,,---,0.33,VWS V14.01,2013-04-17 03:15:00,
2013-04-16 23:20:00,41.5,36.7,30.19,NNW,338,0.0,0.0,83,0.02,,---,0.35,VWS V14.01,2013-04-17 03:20:00,
2013-04-16 23:25:00,41.3,36.5,30.19,NNW,338,0.0,0.0,83,0.02,,---,0.35,VWS V14.01,2013-04-17 03:25:00,
2013-04-16 23:30:00,41.3,36.5,30.19,NNW,338,2.4,2.4,83,0.02,,---,0.35,VWS V14.01,2013-04-17 03:30:00,
2013-04-16 23:35:00,41.1,36.3,30.19,NW,315,0.0,0.0,83,0.02,,---,0.35,VWS V14.01,2013-04-17 03:35:00,
2013-04-16 23:40:00,40.8,36.0,30.19,NW,315,0.0,0.0,83,0.02,,---,0.35,VWS V14.01,2013-04-17 03:40:00,
2013-04-16 23:45:00,40.8,36.0,30.20,NE,45,0.0,0.0,83,0.02,,---,0.35,VWS V14.01,2013-04-17 03:45:00,
2013-04-16 23:50:00,40.6,35.8,30.20,NW,315,0.0,0.0,83,0.02,,---,0.35,VWS V14.01,2013-04-17 03:50:00,
2013-04-16 23:55:00,40.6,35.8,30.20,ENE,68,0.0,0.0,83,0.02,,---,0.35,VWS V14.01,2013-04-17 03:55:00,